Overview Statistics Trail Chart Weather Telemetry Raw packets
 

This is the latest recevied weather packets stored in our database for station/object F1EZC-13. If no packets are shown the sender has not sent any weather packets the latest 10 day(s).

<< 1 2 >>
Time Temp. Humidity Pressure Rain* Wind** Luminosity Snow
1777727796 20.56° C 40% 1007.7 hPa 0 mm - - -
1777647543 22.22° C 45% 1010.6 hPa 0 mm - - -
1777646645 22.22° C 43% 1010.5 hPa 0 mm - - -
1777645808 21.67° C 46% 1010.6 hPa 0 mm - - -
1777645743 21.67° C 46% 1010.6 hPa 0 mm - - -
1777643944 22.22° C 47% 1011 hPa 0 mm - - -
1777643044 22.22° C 47% 1011 hPa 0 mm - - -
1777640345 21.11° C 51% 1011.3 hPa 0 mm - - -
1777638545 20° C 56% 1011.3 hPa 0 mm - - -
1777634045 18.89° C 62% 1011.8 hPa 0 mm - - -
1777631344 20° C 65% 1012.1 hPa 0 mm - - -
1777629545 18.89° C 67% 1012.2 hPa 0 mm - - -
1777623247 15° C 88% 1012.2 hPa 0.25 mm - - -
1777305949 24.44° C 35% 1006 hPa 0 mm - - -
1777305911 24.44° C 35% 1006 hPa 0 mm - - -
1777304111 25° C 33% 1006 hPa 0 mm - - -
1777303213 24.44° C 34% 1006 hPa 0 mm - - -
1777301465 25° C 33% 1006.5 hPa 0 mm - - -
1777301411 25° C 33% 1006.5 hPa 0 mm - - -
1777300583 25° C 33% 1006.7 hPa 0 mm - - -
1777300512 25° C 33% 1006.7 hPa 0 mm - - -
1777297812 25° C 37% 1007.3 hPa 0 mm - - -
1777296977 25.56° C 40% 1007.2 hPa 0 mm - - -
1777296912 25.56° C 40% 1007.2 hPa 0 mm - - -
1777131560 22.22° C 51% 1007.2 hPa 0 mm - - -

* Rain latest hour (hover to see other rain measurements)
** Current wind speed in m/s (hover to see current wind gust speed)